Location: Balaclava NSW 2575, Australia
(34.4510°S, 150.4953°E)
Time: 01:05:53
(UTC+10:00)

deb Explorer IX - All Passes

Search period start: 23 June 2021 00:00
Search period end: 03 July 2021 00:00
Orbit: 542 x 1096 km, 38.8° (Epoch: 21 June)

Date Brightness Start Highest point End Pass type
(mag) Time Alt. Az. Time Alt. Az. Time Alt. Az.
23 Jun - 00:12:40 10° W 00:16:24 15° NW 00:19:53 10° N night (unlit)
23 Jun - 14:50:34 10° NNW 14:56:02 31° NE 15:02:06 10° E daylight
23 Jun - 16:36:07 10° WNW 16:42:53 85° NNE 16:50:15 10° ESE daylight
23 Jun - 18:23:33 10° W 18:30:39 63° S 18:37:56 10° ESE visible
23 Jun - 20:11:18 10° WSW 20:18:40 73° SSE 20:25:45 10° E visible
23 Jun - 21:58:59 10° WSW 22:06:05 56° NNW 22:12:35 10° NE visible
23 Jun - 23:48:28 10° W 23:52:24 16° NW 23:56:08 10° N night (unlit)
24 Jun - 14:26:44 10° NNW 14:32:02 30° NE 14:37:57 10° E daylight
24 Jun - 16:12:12 10° WNW 16:18:50 85° NNE 16:26:09 10° ESE daylight
24 Jun - 17:59:35 10° W 18:06:35 63° S 18:13:54 10° ESE visible
24 Jun - 19:47:15 10° WSW 19:54:35 73° SSE 20:01:46 10° E visible
24 Jun - 21:34:53 10° WSW 21:42:02 57° NNW 21:48:40 10° NE visible
24 Jun - 23:24:17 10° W 23:28:25 16° NW 23:32:19 10° N night (unlit)
25 Jun - 14:02:55 10° NNW 14:08:03 30° NE 14:13:48 10° E daylight
25 Jun - 15:48:19 10° WNW 15:54:47 84° NNE 16:02:02 10° ESE daylight
25 Jun - 17:35:38 10° W 17:42:31 63° S 17:49:48 10° ESE visible
25 Jun - 19:23:14 10° WSW 19:30:30 73° SSE 19:37:46 10° E visible
25 Jun - 21:10:48 10° WSW 21:17:58 57° NNW 21:24:44 10° NE visible
25 Jun - 23:00:07 10° W 23:04:24 17° NW 23:08:29 10° N night (unlit)
26 Jun - 13:39:07 10° NNW 13:44:04 29° NE 13:49:38 10° E daylight
26 Jun - 15:24:27 10° WNW 15:30:45 84° NNE 15:37:55 10° ESE daylight
26 Jun - 17:11:42 10° W 17:18:26 62° S 17:25:44 10° ESE visible
26 Jun - 18:59:13 10° WSW 19:06:25 73° SSE 19:13:44 10° E visible
26 Jun - 20:46:43 10° WSW 20:53:54 57° NNW 21:00:46 10° NE visible
26 Jun - 22:35:57 10° W 22:40:23 17° NW 22:44:37 10° N night (unlit)
27 Jun - 13:15:20 10° NNW 13:20:06 28° NE 13:25:30 10° E daylight
27 Jun - 15:00:36 10° WNW 15:06:43 84° NNE 15:13:47 10° ESE daylight
27 Jun - 16:47:47 10° W 16:54:23 62° S 17:01:37 10° ESE daylight
27 Jun - 18:35:13 10° WSW 18:42:20 73° SSE 18:49:40 10° E visible
27 Jun - 20:22:40 10° WSW 20:29:49 58° NNW 20:36:47 10° NE visible
27 Jun - 22:11:48 10° W 22:16:21 18° NW 22:20:43 10° N night (unlit)
28 Jun - 12:51:34 10° NNW 12:56:08 27° NE 13:01:20 10° E daylight
28 Jun - 14:36:46 10° WNW 14:42:43 84° NNE 14:49:37 10° ESE daylight
28 Jun - 16:23:52 10° W 16:30:20 62° S 16:37:30 10° ESE daylight
28 Jun - 18:11:15 10° WSW 18:18:15 72° SSE 18:25:36 10° E visible
28 Jun - 19:58:37 10° WSW 20:05:43 58° NNW 20:12:46 10° NE visible
28 Jun - 21:47:41 10° W 21:52:18 18° NW 21:56:47 10° N visible
29 Jun - 12:27:48 10° NNW 12:32:12 26° NE 12:37:11 10° E daylight
29 Jun - 14:12:56 10° WNW 14:18:43 84° NNE 14:25:30 10° ESE daylight
29 Jun - 16:00:00 10° W 16:06:17 61° S 16:13:22 10° ESE daylight
29 Jun - 17:47:18 10° WSW 17:54:10 72° SSE 18:01:31 10° E visible
29 Jun - 19:34:36 10° WSW 19:41:38 58° NNW 19:48:44 10° NE visible
29 Jun - 21:23:35 10° W 21:28:15 18° NW 21:32:49 10° N visible
30 Jun - 12:04:03 10° NNW 12:08:16 25° NE 12:13:02 10° E daylight
30 Jun - 13:49:08 10° WNW 13:54:44 84° NNE 14:01:20 10° ESE daylight
30 Jun - 15:36:07 10° W 15:42:15 61° S 15:49:13 10° ESE daylight
30 Jun - 17:23:22 10° WSW 17:30:05 72° SSE 17:37:24 10° E visible
30 Jun - 19:10:36 10° WSW 19:17:32 58° NNW 19:24:40 10° NE visible
30 Jun - 20:59:30 10° W 21:04:11 18° NW 21:08:50 10° N visible
01 Jul - 11:40:19 10° NNW 11:44:21 24° NE 11:48:53 10° E daylight
01 Jul - 13:25:21 10° WNW 13:30:45 83° NNE 13:37:12 10° ESE daylight
01 Jul - 15:12:17 10° W 15:18:13 60° S 15:25:04 10° ESE daylight
01 Jul - 16:59:26 10° WSW 17:06:01 72° SSE 17:13:16 10° E daylight
01 Jul - 18:46:37 10° WSW 18:53:27 58° NNW 19:00:35 10° NE visible
01 Jul - 20:35:27 10° W 20:40:08 18° NW 20:44:48 10° N visible
02 Jul - 11:16:35 10° NNW 11:20:26 23° NE 11:24:46 10° E daylight
02 Jul - 13:01:33 10° WNW 13:06:48 83° NNE 13:13:03 10° ESE daylight
02 Jul - 14:48:27 10° W 14:54:13 59° S 15:00:54 10° ESE daylight
02 Jul - 16:35:33 10° WSW 16:41:57 71° SSE 16:49:08 10° E daylight
02 Jul - 18:22:39 10° WSW 18:29:21 57° NNW 18:36:29 10° NE visible
02 Jul - 20:11:25 10° W 20:16:04 18° NW 20:20:44 10° N visible
